Location: Владивосток
(43.1151°N, 131.8856°E)
Time: 06:05:18
(UTC+10:00)

CUBEBUG 2 - Pass Details

Date: 03 July 2022
Orbit: 584 x 693 km, 97.7° (Epoch: 07 August)

Event Time Altitude Azimuth Distance (km) Brightness Sun altitude
Rises 03:16:51 0° 27° (NNE) 2,839 ? -18.3°
Reaches altitude 10° 03:19:27 10° 44° (NE) 1,945 ? -18.1°
Maximum altitude 03:22:40 21° 94° (E) 1,382 ? -17.8°
Drops below altitude 10° 03:25:55 10° 144° (SE) 1,975 ? -17.5°
Enters shadow 03:26:17 - 147° (SSE) 2,092 ? -17.5°
